COSMOS 2460 (732)

Last updated on Aug. 14, 2020, 5:31 a.m. UTC

1 36402U 10007C   20226.49515694 -.00000028  00000-0  10000-3 0  9993
2 36402  65.8785  25.9120 0002719 123.8062 267.2903  2.13101226 81350
UTC
Height (km)
Latitude
Longitude
Inclination
Orbital Period
UTC large
Height (km)
Speed (km/s)
/
Latitude / Longitude
Inclination (degrees)
Orbital Period (minutes)
Azimuth
Elevation
Range (km)
Doppler Factor
iOS Compass Heading
iOS Angle

Next 30 passes for location: Hong Kong

Rise time Rise Azimuth (degrees) Set time Set Azimuth (degrees) Duration Max altitude (degrees)

No matching passes for this satellites